User: anonymous   Login
Location: Tauranga
(37.6860°S, 176.1670°E)
Time: 20:09:37
(UTC+13:00)
Language:

Cosmos 540 Rocket - Orbit

View from above orbital plane
View from above orbital plane
View from above satellite
View from above satellite

Ground track
Ground track

The orbit data is extracted from the following two-line orbital elements,

1  6324U 72104B   19293.64994913 -.00000010  00000-0  48501-5 0  9993
2  6324  74.0762 320.4971 0010280 244.1877 115.8220 14.43468123459006
Epoch (UTC): 20 October 2019 15:35:55
Eccentricity: 0.0010280
inclination: 74.0762°
perigee height: 740 km
apogee height: 754 km
right ascension of ascending node: 320.4971°
argument of perigee: 244.1877°
revolutions per day: 14.43468123
mean anomaly at epoch: 115.8220°
orbit number at epoch: 45900

The dashed part of the orbit path shows where the satellite is in the earth's shadow,  

DLR